[Iaude] MPEC B59: 2024 BK1 [a=1.62,e=0.24,i=11.1,H=24.4]
    mpec at marsden.cfa.harvard.edu 
    mpec at marsden.cfa.harvard.edu
       
    Sat Jan 20 05:08:26 EST 2024
    
    
  
M.P.E.C. 2024-B59                              Issued 2024 January 20, 10:06 UT
     The Minor Planet Electronic Circulars contain information on unusual
         minor planets, routine data on comets and natural satellites,
         and occasional editorial announcements.  They are published
    on behalf of Division F of the International Astronomical Union by the
          Minor Planet Center, Smithsonian Astrophysical Observatory,
                          Cambridge, MA 02138, U.S.A.
			  
             Prepared using the Tamkin Foundation Computer Network
                              MPC at CFA.HARVARD.EDU
            URL https://www.minorplanetcenter.net/    ISSN 1523-6714
                                    2024 BK1                                    
Observations:
     K24B01K  C2024 01 17.27528007 05 26.308+30 34 53.51         22.84GVEB059V00
     K24B01K* C2024 01 17.27589407 05 26.340+30 34 54.84         22.85GVEB059V00
     K24B01K  C2024 01 17.28080107 05 26.264+30 35 06.97         22.48GVEB059V00
     K24B01K  C2024 01 17.28141207 05 26.250+30 35 08.12         22.36GVEB059V00
     K24B01K  C2024 01 17.28672407 05 26.164+30 35 21.26         22.42GVEB059V00
     K24B01K  C2024 01 17.28733607 05 26.185+30 35 22.34         22.88GVEB059V00
     K24B01K  C2024 01 17.29223307 05 26.088+30 35 34.12         22.65GVEB059V00
     K24B01K  C2024 01 17.29284307 05 26.099+30 35 35.74         22.18GVEB059V00
     K24B01K  C2024 01 17.36673907 05 25.163+30 38 31.34         22.06GVEB059V00
     K24B01K  C2024 01 17.36735207 05 25.145+30 38 32.78         22.53GVEB059V00
     K24B01K mC2024 01 17.36813907 05 25.120+30 38 34.51         22.50GVEB059V00
     K24B01K mC2024 01 17.37156407 05 25.091+30 38 42.58         22.37GVEB059V00
     K24B01K  C2024 01 17.37429107 05 25.055+30 38 49.16               VEB059V00
     K24B01K mC2024 01 17.37508407 05 25.044+30 38 50.93         22.45GVEB059V00
     K24B01K  C2024 01 17.37586907 05 25.066+30 38 53.12         21.60GVEB059V00
     K24B01K  C2024 01 17.38076007 05 25.015+30 39 04.32         22.13GVEB059V00
     K24B01K  C2024 01 17.38137207 05 24.968+30 39 05.44         22.13GVEB059V00
     K24B01K  C2024 01 17.38625707 05 24.925+30 39 17.14         22.79GVEB059V00
     K24B01K  C2024 01 17.38687907 05 24.914+30 39 18.43         23.52GVEB059V00
     K24B01K KC2024 01 17.38759 07 05 24.91 +30 39 20.7          22.3 RVEB059291
     K24B01K KC2024 01 17.40610 07 05 24.71 +30 40 04.1          22.4 RVEB059291
     K24B01K mC2024 01 18.29268707 05 27.388+31 15 08.60         22.52GVEB059V00
     K24B01K  C2024 01 18.29348607 05 27.366+31 15 10.44         22.52GVEB059V00
     K24B01K mC2024 01 18.29612407 05 27.323+31 15 16.34         22.18GVEB059V00
     K24B01K mC2024 01 18.29970007 05 27.287+31 15 24.80         22.28GVEB059V00
     K24B01K  C2024 01 18.30172407 05 27.287+31 15 29.34         22.58GVEB059V00
     K24B01K mC2024 01 18.30312707 05 27.298+31 15 32.58         21.59GVEB059V00
     K24B01K  C2024 01 18.30880307 05 27.186+31 15 45.90         22.44GVEB059V00
     K24B01K  C2024 01 18.31493007 05 27.107+31 16 00.01         22.15GVEB059V00
     K24B01K mC2024 01 20.40252607 05 35.690+32 34 56.90         23.15GVEB059V00
     K24B01K mC2024 01 20.40444407 05 35.690+32 35 01.10         23.53GVEB059V00
Observer details:
291 LPL/Spacewatch II.  Observer C. Lejoly.  1.8-m f/2.7 reflector + CCD.
V00 Kitt Peak-Bok.  Observers R. A. Mastaler, H. Groeller.  Measurers M. J.
    Brucker, C. E. Woodward, D. Fay, J. B. Fazekas, D. C. Fuls, A. R. Gibbs,
    H. Groeller, J. K. Hogan, R. A. Kowalski, S. M. Larson, C. Lejoly, G. J.
    Leonard, R. A. Mastaler, R. S. McMillan, D. Rankin, R. L. Seaman, A.
    Serrano, F. C. Shelly, K. W. Wierzchos.  2.25-m reflector + 4x4K mosaic
    CCD.
Orbital elements:
2024 BK1                                                 Earth MOID = 0.2402 AU
Epoch 2023 Sept. 13.0 TT = JDT 2460200.5                MPC                     
M 311.51937              (2000.0)            P               Q                  
n   0.47930772     Peri.  348.37616     -0.06789021     -0.98015462             
a   1.6170611      Node   105.30664     +0.93014496     -0.12970169             
e   0.2439733      Incl.   11.13355     +0.36086184     +0.14991463             
P   2.06           H   24.49          G   0.15           U   9                  
Residuals in seconds of arc
240117 V00  0.2-  0.2-    240117 V00  0.2+  0.2-    240118 V00  0.1-  0.2+
240117 V00  0.3+  0.3-    240117 V00  0.1+  0.0     240118 V00  0.2-  0.1-
240117 V00  0.2+  0.0     240117 V00  0.1+  0.1-    240118 V00  0.2-  0.1+
240117 V00  0.1+  0.3-    240117 V00  0.5+  0.2+    240118 V00  0.1+  0.1-
240117 V00  0.1-  0.1+    240117 V00  0.5+  0.1-    240118 V00  0.5+  0.1-
240117 V00  0.3+  0.3-    240117 V00  0.0   0.4-    240118 V00  0.1-  0.0
240117 V00  0.1-  0.3-    240117 V00  0.1+  0.1-    240118 V00  0.3-  0.1-
240117 V00  0.2+  0.2-    240117 V00  0.1+  0.3-    240120 V00  0.0   0.1-
240117 V00  0.4+  0.1-    240117 291  0.1+  0.3+    240120 V00  0.0   0.1+
240117 V00  0.2+  0.1-    240117 291  0.1-  0.5+
240117 V00  0.0   0.2-    240118 V00  0.1+  0.2+
Ephemeris:
2024 BK1                 a,e,i = 1.62, 0.24, 11                  q = 1.2225
Date    TT    R. A. (2000) Decl.     Delta      r    Elong.  Phase     V
2023 12 21    07 07 02.2 +10 02 58   0.2537  1.2227   157.9    17.6    22.9
...
2024 01 05    07 06 49.9 +21 23 43   0.2433  1.2265   177.9     1.7    22.1
...
2024 01 13    07 05 40.2 +27 34 43   0.2518  1.2329   171.1     7.1    22.5
...
2024 01 19    07 05 29.7 +31 42 26   0.2645  1.2396   163.4    13.1    22.8
2024 01 20    07 05 34.6 +32 20 08   0.2672  1.2409   162.1    14.1    22.9
2024 01 21    07 05 41.9 +32 56 42   0.2699  1.2422   160.9    15.0    23.0
...
2024 01 27    07 07 18.6 +36 11 29   0.2891  1.2510   154.1    20.1    23.3
...
2024 02 04    07 12 09.6 +39 24 52   0.3212  1.2650   146.1    25.8    23.7
...
2024 02 19    07 30 07.2 +42 26 50   0.3979  1.2975   134.2    33.1    24.4
A. U. Tomatic                (C) Copyright 2024 MPC           M.P.E.C. 2024-B59
    
    
More information about the Iaude
mailing list